DW4892 Weather Reports


time (UTC)temp
C
wind
direction
speed
KPH
gust
KPH
rain 1hr
cm
rain 24hr
cm
rain mn
cm
humidity
%
barometer
mb
20260505200021 3 67 3.2 8.0 0.08 0.81 0.56 94 1004.8
20260505194518 3 51 3.2 8.0 0.08 0.79 0.53 94 1004.8
20260505193013 2 58 1.6 6.4 0.10 0.79 0.53 94 1004.9
20260505191527 2 55 1.6 6.4 0.08 0.76 0.51 94 1005.0
20260505190027 2 44 3.2 9.7 0.05 0.71 0.48 93 1005.0
20260505184520 2 78 1.6 8.0 0.05 0.71 0.46 94 1005.1
20260505183020 2 59 3.2 11.3 0.03 0.69 0.43 94 1005.0
20260505181514 2 98 3.2 11.3 0.03 0.69 0.43 94 1004.9
20260505180027 2 71 3.2 8.0 0.05 0.69 0.43 94 1005.0
20260505174529 2 39 3.2 11.3 0.03 0.66 0.41 94 1005.0
20260505173022 2 109 4.8 11.3 0.03 0.66 0.41 94 1004.7
20260505171517 2 50 4.8 12.9 0.03 0.66 0.41 94 1004.6
20260505170019 2 104 3.2 9.7 0.03 0.64 0.38 94 1004.7
20260505164529 2 77 4.8 9.7 0.03 0.64 0.38 94 1004.7
20260505163029 2 67 4.8 12.9 0.03 0.64 0.38 94 1005.0
20260505161521 2 64 3.2 9.7 0.03 0.64 0.38 94 1004.7
20260505153029 2 88 1.6 6.4 0.03 0.61 0.36 94 1004.5
20260505151522 2 64 1.6 8.0 0.05 0.61 0.36 94 1004.5
20260505124521 2 335 3.2 9.7 0.13 0.48 0.23 94 1001.8
20260505123015 2 244 1.6 9.7 0.10 0.46 0.20 94 1001.5
20260505121533 2 246 3.2 11.3 0.08 0.41 0.15 94 1001.7
20260505120024 3 301 3.2 9.7 0.13 0.38 0.13 93 1001.5
20260505114519 3 206 4.8 12.9 0.10 0.36 0.10 94 1001.3
20260505113021 3 298 3.2 8.0 0.10 0.36 0.10 94 1001.1
20260505111529 4 163 3.2 11.3 0.08 0.33 0.08 93 1000.7
20260505100020 6 346 0.0 3.2 0.00 0.25 0.00 92 999.8
20260505094536 6 24 0.0 3.2 0.00 0.25 0.00 91 999.5
20260505093032 6 84 0.0 4.8 0.00 0.25 0.00 91 999.6
20260505091527 6 92 1.6 4.8 0.00 0.25 0.00 91 999.8
20260505090016 6 90 1.6 3.2 0.00 0.25 0.00 91 999.8
20260505084517 6 91 1.6 4.8 0.00 0.25 0.00 92 999.4
20260505083032 6 83 0.0 4.8 0.00 0.25 0.00 91 999.4
20260505081529 7 47 0.0 4.8 0.00 0.25 0.00 91 999.8
20260505080022 7 123 0.0 3.2 0.00 0.25 0.00 92 1000.1
20260505074517 7 175 0.0 1.6 0.00 0.25 0.00 92 1000.1
20260505073036 7 174 0.0 3.2 0.00 0.25 0.00 92 1000.5
20260505071525 7 115 0.0 3.2 0.00 0.25 0.00 91 1000.4
20260505070018 7 180 0.0 3.2 0.00 0.25 0.00 91 1000.8
20260505064517 7 175 0.0 3.2 0.00 0.25 0.00 92 1000.8
20260505063029 7 100 0.0 1.6 0.03 0.25 0.00 92 1001.0
20260505061525 7 94 0.0 3.2 0.03 0.25 0.00 92 1000.9
20260505060030 7 100 1.6 3.2 0.08 0.25 0.00 92 1000.8
20260505054530 7 90 0.0 4.8 0.13 0.25 0.25 92 1001.1
20260505053010 7 200 0.0 1.6 0.10 0.23 0.23 91 1000.6
20260505051529 7 276 0.0 1.6 0.13 0.23 0.23 91 1000.9
20260505041530 7 271 0.0 3.2 0.10 0.10 0.10 88 1000.9
20260505040028 8 254 0.0 3.2 0.08 0.08 0.08 87 1000.8
20260505034520 8 286 1.6 4.8 0.03 0.03 0.03 82 1000.5
20260505033019 10 288 1.6 6.4 0.00 0.00 0.00 74 1000.3
20260505031511 10 283 1.6 4.8 0.00 0.00 0.00 66 1000.2
20260505030029 10 10 0.0 3.2 0.00 0.00 0.00 62 999.9
20260505024521 10 50 0.0 6.4 0.00 0.00 0.00 63 999.8
20260505023018 10 354 0.0 1.6 0.00 0.00 0.00 64 999.3
20260505021531 10 354 0.0 3.2 0.00 0.00 0.00 64 999.2
20260505020029 10 329 0.0 3.2 0.00 0.00 0.00 64 999.0
20260505014526 10 293 0.0 4.8 0.00 0.00 0.00 62 998.7
20260505013019 11 3 0.0 4.8 0.00 0.00 0.00 63 998.5
20260505011520 12 52 3.2 14.5 0.00 0.00 0.00 57 998.5
20260505010032 12 334 1.6 6.4 0.00 0.00 0.00 48 998.5
20260505004537 13 36 1.6 11.3 0.00 0.00 0.00 47 998.2
20260505003023 13 278 3.2 11.3 0.00 0.00 0.00 42 998.0
20260505001514 14 158 1.6 9.7 0.00 0.00 0.00 40 997.8
20260505000017 14 18 1.6 12.9 0.00 0.00 0.00 41 997.4
20260504234535 15 63 3.2 14.5 0.00 0.00 0.00 36 997.4
20260504233021 16 69 4.8 14.5 0.00 0.00 0.00 35 997.2
20260504231532 16 52 4.8 17.7 0.00 0.00 0.00 35 997.2
20260504230014 16 86 12.9 22.5 0.00 0.00 0.00 34 996.4
20260504224529 17 79 12.9 22.5 0.00 0.00 0.00 32 996.1
20260504223027 19 92 4.8 16.1 0.00 0.00 0.00 28 995.8
20260504221523 18 68 1.6 11.3 0.00 0.00 0.00 28 995.8
20260504220015 18 320 1.6 11.3 0.00 0.00 0.00 27 995.8
20260504214516 19 339 3.2 8.0 0.00 0.00 0.00 28 995.9
20260504213030 19 340 1.6 11.3 0.00 0.00 0.00 27 995.9
20260504211524 20 165 4.8 12.9 0.00 0.00 0.00 27 996.1
20260504210020 19 103 3.2 12.9 0.00 0.00 0.00 26 996.2
20260504204522 21 5 3.2 12.9 0.00 0.00 0.00 27 996.2
20260504203013 20 304 3.2 11.3 0.00 0.00 0.00 27 996.3
20260504201525 20 52 4.8 12.9 0.00 0.00 0.00 26 996.4